Theta_e
354 350 344 341 338 331 324 324 336 338 338 339 339 339 339 338 333 330 326 325 324 325 325 326 326 326 327 329 332 333 334 336 343 344 343 341 338 334 330 323 322 324 326
354 352 344 340 337 330 322 325 336 338 338 339 339 339 338 337 332 327 325 325 324 324 324 325 325 326 329 331 332 334 335 339 345 346 344 341 339 335 331 326 324 325 326
351 354 342 339 336 329 321 322 334 336 337 338 336 337 333 333 327 325 326 326 325 324 324 324 326 327 327 328 332 336 337 341 346 348 344 344 341 338 334 330 326 325 326
343 354 342 338 336 330 321 321 328 335 336 337 334 330 327 327 324 325 325 326 326 324 323 323 324 328 330 331 333 334 334 339 347 348 346 345 342 341 337 331 328 326 326
344 346 340 339 337 334 322 321 322 327 327 327 328 327 325 324 324 325 325 326 326 324 323 322 321 323 326 327 327 329 336 344 346 346 346 347 345 343 339 332 330 328 327
345 345 340 339 339 337 331 321 321 321 322 323 324 324 324 324 325 325 326 326 325 323 323 322 321 321 322 323 329 334 342 346 341 345 345 347 346 344 339 333 332 330 329
349 345 341 340 340 338 337 332 323 322 322 323 323 324 324 324 325 326 326 326 324 323 323 321 321 321 323 327 334 338 340 340 337 342 346 347 346 344 340 334 333 332 330
352 351 343 341 342 340 337 337 334 327 322 323 323 323 324 324 325 326 326 326 324 323 323 321 321 321 325 328 334 337 339 340 338 339 345 346 347 346 341 334 333 333 331
353 353 350 344 343 343 340 337 336 336 331 324 323 323 324 324 325 326 326 325 325 323 323 322 321 320 323 327 331 336 338 339 340 341 345 344 346 346 342 333 333 333 331
349 354 353 351 345 344 344 339 337 337 336 335 328 323 323 324 325 326 326 326 324 324 323 322 321 320 321 328 333 337 339 339 341 343 345 344 347 346 342 334 334 333 331
331 338 346 352 351 348 346 344 338 336 336 336 336 331 324 324 325 326 326 326 324 324 323 322 321 320 321 329 336 338 339 342 344 344 346 345 347 344 340 335 335 333 331
319 321 331 348 353 351 349 348 345 336 334 336 336 336 333 325 324 325 326 327 326 324 324 323 321 320 320 330 337 341 343 345 343 343 343 343 343 342 336 336 335 333 331
318 317 318 328 349 352 351 349 347 341 336 332 334 336 336 333 325 324 326 328 327 325 324 324 322 320 320 326 334 338 342 345 342 341 341 340 340 339 335 336 334 333 330
319 318 317 317 319 328 344 351 350 347 342 336 332 332 336 337 333 327 326 330 331 328 324 324 323 321 320 320 329 341 345 346 342 344 340 339 338 337 336 335 334 332 327
317 317 318 318 316 317 319 325 341 347 348 345 339 332 332 335 336 334 331 331 333 333 327 324 324 322 320 320 335 345 346 345 344 343 342 335 335 336 336 335 333 330 325
318 317 316 317 317 316 317 320 329 339 345 347 345 340 332 330 336 337 334 333 334 334 332 325 324 324 321 322 338 345 345 344 344 343 338 337 335 335 336 334 333 326 325
321 319 318 316 317 317 317 318 319 329 341 346 344 343 337 330 332 337 336 335 335 335 334 328 324 325 323 334 344 345 345 344 343 342 339 339 337 336 336 334 330 326 325
322 322 320 317 317 318 318 319 319 319 324 337 344 343 344 337 331 332 337 336 336 336 335 327 330 331 324 335 341 342 345 344 344 340 340 339 337 337 336 333 328 327 325
320 322 322 321 318 318 319 321 323 323 320 323 333 331 336 345 337 333 332 337 337 336 335 329 334 330 324 331 337 342 344 343 341 341 340 339 337 337 335 330 328 327 326
320 320 320 323 323 321 318 320 324 327 325 323 320 326 335 343 344 339 332 330 336 337 336 333 335 336 334 335 336 342 343 342 341 340 338 338 336 336 334 329 328 327 326
319 319 320 319 322 323 322 321 326 326 327 327 324 321 322 338 343 343 340 340 335 337 337 333 338 339 336 336 342 345 344 342 341 339 339 338 337 336 332 329 328 327 326
320 320 320 320 319 319 322 323 323 323 332 330 332 329 323 324 339 344 342 342 341 335 337 335 336 341 336 340 346 344 342 341 340 339 338 337 337 334 331 329 328 327 326
320 320 320 320 320 319 319 321 324 324 324 328 327 327 325 322 324 338 344 342 341 336 334 336 338 341 338 344 347 343 341 341 340 338 336 336 335 333 330 328 327 325 321
320 320 321 321 321 321 321 320 321 324 324 324 323 327 327 322 322 328 340 343 341 338 334 335 335 342 341 339 343 343 342 341 338 335 334 335 334 332 329 326 322 319 319
320 321 321 321 321 321 321 321 321 322 324 324 324 324 328 328 322 322 327 334 340 340 337 334 332 343 342 338 339 342 342 342 340 337 334 331 329 326 323 321 319 318 316
320 320 320 320 321 321 321 321 323 322 322 323 324 324 326 324 325 323 322 322 337 341 340 338 334 343 343 338 341 343 343 342 341 338 335 330 326 322 322 321 317 316 314
Wind_Speed
14 17 19 19 18 17 18 21 23 22 21 20 19 18 17 15 14 15 14 13 13 14 13 12 11 10 10 9 8 7 6 6 6 6 6 9 11 13 14 14 13 13 15
11 18 20 20 19 17 19 22 24 22 21 20 18 17 16 14 13 13 13 13 13 13 13 12 11 10 10 8 7 6 5 5 4 4 6 8 9 10 13 13 14 14 16
8 18 22 21 19 18 20 23 24 22 20 19 17 16 15 14 13 13 14 13 13 12 12 11 11 9 8 8 6 5 4 4 3 3 3 5 6 8 12 14 15 15 16
8 21 23 22 19 17 19 21 24 23 21 19 18 17 15 15 15 15 14 13 12 12 12 10 9 8 7 7 6 4 2 2 2 0 4 3 5 9 11 14 15 16 16
9 19 22 21 18 16 18 19 22 22 21 19 18 17 17 16 16 15 14 13 13 13 12 11 9 7 6 6 6 4 3 2 1 1 3 4 5 8 11 13 15 15 16
9 15 19 19 19 17 17 18 20 21 21 20 19 18 17 17 16 15 14 14 14 13 12 11 10 8 7 7 7 6 5 3 2 3 4 5 5 6 9 12 14 16 16
7 12 16 17 18 18 18 18 19 20 20 20 20 19 19 17 16 15 15 15 14 14 13 12 11 10 9 8 7 7 5 3 3 4 5 4 6 6 8 11 14 15 16
5 6 13 17 17 17 18 19 18 19 20 20 20 21 20 19 18 16 15 15 14 14 13 13 11 10 10 9 8 7 6 5 4 4 5 5 7 8 9 11 14 16 16
7 8 11 16 18 18 19 20 20 20 20 20 21 22 21 20 19 17 15 15 15 15 14 13 12 11 11 10 10 8 7 6 5 4 4 5 9 9 10 12 14 15 16
9 11 13 14 19 21 21 21 21 21 21 21 22 23 23 22 21 19 17 16 16 16 15 14 13 13 12 11 10 9 8 7 6 6 8 9 9 10 11 13 14 15 16
8 10 13 16 18 21 21 21 22 22 23 23 23 23 25 25 24 22 19 17 16 16 16 15 14 14 13 12 11 10 8 7 8 9 9 9 9 10 11 13 14 14 16
2 4 9 13 17 19 20 21 23 24 25 27 27 26 27 26 26 24 21 19 18 17 17 16 16 15 15 14 12 10 9 9 7 7 8 10 10 11 12 14 14 14 15
12 10 9 11 14 18 20 19 23 25 27 28 29 30 28 28 28 27 25 23 20 19 18 18 17 16 16 16 15 13 11 11 8 7 9 11 11 12 12 14 14 13 16
13 12 12 12 12 13 21 23 22 24 26 29 31 32 33 32 31 30 28 25 22 21 19 19 18 18 17 18 17 13 13 12 9 9 10 11 11 12 13 13 12 13 15
15 14 11 11 13 17 18 20 26 26 26 26 30 32 35 36 34 31 30 27 25 23 21 20 19 19 18 18 17 15 14 13 11 10 11 8 9 12 13 12 11 12 14
14 16 15 17 14 13 19 22 22 26 26 26 27 29 33 36 36 34 32 30 28 25 22 21 21 20 19 18 18 16 16 15 13 12 10 9 10 12 13 12 11 12 14
10 15 17 18 17 17 18 16 23 22 26 25 24 25 27 31 34 36 34 32 30 26 23 23 23 21 21 20 19 17 16 17 15 13 11 10 12 12 13 13 12 13 13
10 8 11 17 19 21 19 22 19 23 26 26 26 24 24 26 31 33 35 34 31 28 24 24 23 24 23 22 21 19 18 16 15 15 13 12 13 14 13 14 13 13 14
15 11 9 10 17 22 25 25 27 27 25 27 28 27 25 25 27 31 32 34 32 30 26 24 23 22 23 22 20 20 18 17 19 17 16 14 15 14 16 14 15 13 15
20 18 15 12 13 19 25 28 31 33 31 30 27 29 29 28 27 28 30 33 33 32 29 26 24 21 20 19 20 22 22 22 22 20 17 17 17 17 18 17 16 15 16
27 25 23 20 17 17 22 27 29 34 36 35 33 29 29 31 31 30 30 30 31 35 33 30 26 24 22 21 21 21 23 22 22 20 20 21 20 18 16 17 16 17 18
35 33 30 26 23 23 22 23 24 30 36 40 41 38 32 32 33 35 34 33 32 34 36 33 31 28 23 23 23 21 17 21 21 22 23 23 21 20 18 18 18 19 20
37 34 30 27 23 21 21 28 27 27 34 40 44 45 38 32 33 36 36 32 31 32 37 35 33 32 26 28 27 21 11 13 17 19 20 21 21 20 20 19 20 19 20
35 30 29 26 22 18 19 23 30 33 31 32 43 44 43 36 32 35 36 34 32 30 33 36 36 33 33 31 30 31 28 21 14 9 15 18 19 20 19 19 18 19 21
33 31 31 29 24 20 19 20 25 33 35 32 30 42 44 42 37 34 35 36 36 34 31 32 36 35 34 33 34 33 30 27 24 20 14 15 18 18 17 17 20 21 22
32 31 31 31 28 26 22 21 23 30 35 35 34 32 42 43 40 39 34 35 37 36 33 33 35 34 34 32 35 34 31 27 27 25 20 15 17 16 16 20 20 20 21
Wind_Direction
172 180 180 179 177 181 185 180 172 165 164 164 166 166 163 160 156 153 149 147 143 142 145 147 146 145 131 125 123 118 106 94 87 105 76 60 55 45 38 34 29 22 19
205 183 182 182 179 185 184 180 179 172 169 171 173 172 171 169 165 162 161 156 150 151 152 153 150 147 137 135 129 121 106 91 87 106 79 58 51 42 34 29 23 18 15
210 189 181 184 183 184 185 183 184 184 180 179 183 183 177 173 171 171 173 166 163 161 160 159 151 148 147 145 141 130 115 93 81 128 142 41 42 34 26 21 19 14 11
183 190 183 185 185 183 186 187 189 189 189 191 191 187 183 179 178 179 179 175 173 171 166 161 156 157 157 150 149 151 141 107 89 11 218 344 7 15 12 13 13 8 7
169 176 183 187 188 187 187 190 194 196 195 195 196 193 188 186 186 187 185 183 184 180 171 164 168 173 177 172 165 171 172 159 113 337 277 266 335 355 1 3 5 2 2
169 186 190 193 193 195 193 195 196 198 199 199 199 197 195 194 193 194 193 192 190 186 180 174 173 183 191 192 178 185 190 203 272 291 301 264 318 330 351 351 355 357 356
140 195 201 203 204 204 204 203 203 203 203 204 202 201 201 200 200 200 201 199 195 191 188 183 183 187 197 208 195 194 208 241 276 273 304 291 296 317 337 336 347 353 353
153 185 211 212 214 217 214 215 213 211 210 209 208 207 207 207 206 206 206 204 202 198 197 193 190 195 204 211 214 210 222 249 274 298 300 292 309 306 316 325 340 347 351
212 217 215 218 219 219 223 224 224 223 219 216 214 214 214 215 215 213 212 209 207 205 204 201 196 200 212 216 222 226 231 245 266 283 301 297 292 296 302 318 331 342 347
219 234 233 225 222 221 223 225 227 229 228 225 222 220 220 220 220 220 218 216 213 211 210 207 204 204 215 220 223 229 235 245 265 283 292 274 282 286 293 310 324 334 343
212 227 237 239 229 225 227 230 230 230 232 230 228 226 225 225 225 225 224 223 223 219 216 215 212 210 214 223 225 228 230 248 269 279 284 279 275 274 283 303 317 328 339
260 269 240 230 237 233 227 233 237 237 234 232 231 231 230 229 229 230 229 229 229 227 222 221 219 217 217 219 223 226 232 251 278 287 284 279 272 266 278 298 312 325 337
291 283 274 244 230 239 240 242 240 237 239 240 237 234 234 233 231 230 230 231 232 232 229 226 225 225 221 225 226 232 244 256 263 296 301 286 279 262 277 297 307 327 335
290 286 283 264 260 257 256 247 248 249 246 244 242 239 235 234 233 233 233 234 236 237 237 234 232 231 228 227 231 235 244 251 259 292 298 297 276 263 279 294 304 324 331
270 269 279 282 270 260 258 258 255 252 251 252 252 248 242 238 236 236 235 235 238 239 240 239 238 237 235 230 226 232 246 251 259 278 295 290 287 277 279 288 307 318 325
273 268 273 262 271 268 260 258 255 253 257 256 257 256 250 243 240 238 238 237 238 240 242 241 240 241 238 232 228 237 247 251 257 271 281 286 304 284 283 289 303 313 321
302 274 259 256 250 260 256 259 261 254 252 255 258 261 257 249 243 241 239 239 241 242 245 244 242 240 236 226 228 236 253 247 254 268 275 285 296 289 281 289 297 307 319
1 321 270 252 250 245 252 253 256 264 257 253 253 260 258 256 246 243 243 241 242 243 245 243 241 238 232 229 234 242 251 247 260 261 269 274 287 284 281 287 285 299 316
358 342 323 273 255 246 248 246 247 251 261 263 258 256 255 254 252 243 245 246 244 243 244 242 241 236 231 232 239 242 248 247 260 256 263 268 283 280 288 279 280 290 303
342 333 320 295 281 266 253 245 244 246 249 255 259 260 260 253 250 247 241 243 244 243 241 238 235 236 234 236 246 251 238 244 255 249 253 259 268 263 272 270 275 286 292
333 326 316 303 273 270 267 257 246 245 246 249 250 259 258 256 252 247 241 240 240 240 238 236 235 240 240 241 237 232 237 249 244 245 251 257 257 261 260 264 272 280 286
338 329 319 308 292 273 259 258 259 248 242 248 250 250 258 256 253 253 249 244 240 238 237 235 234 235 235 229 226 231 230 234 240 248 255 254 250 252 259 261 267 276 279
340 333 326 316 302 286 281 263 258 255 249 244 246 249 249 256 255 253 256 249 245 238 237 233 230 232 234 224 226 221 225 232 245 248 250 250 250 253 255 259 268 273 273
338 337 337 327 316 306 293 280 262 261 262 254 247 248 252 254 258 254 251 250 248 244 237 235 228 231 232 231 229 225 234 248 247 252 253 249 252 253 253 259 266 268 259
339 338 340 326 321 312 305 295 277 262 259 264 260 247 248 253 251 256 249 250 247 244 239 236 226 229 232 234 233 231 234 244 254 256 262 247 247 247 250 256 257 258 263
338 339 338 333 323 314 309 305 293 275 263 259 257 254 245 246 248 249 250 253 251 243 245 238 228 230 231 237 236 241 247 253 256 254 252 254 247 248 251 255 253 263 269